Location: *
(43.2048°N, 0.1612°E)
Time: 17:59:28
(UTC+00:00)

Nadezhda 1 Rocket - Pass Details

Date: 30 September 2023
Orbit: 940 x 1006 km, 83.0° (Epoch: 05 December)

Event Time Altitude Azimuth Distance (km) Brightness Sun altitude
Rises 04:31:04 0° 353° (N) 3,720 7.1 -16.1°
Reaches altitude 10° 04:33:38 10° 354° (N) 2,759 6.4 -15.6°
Maximum altitude 04:39:58 79° 82° (E) 1,000 4.2 -14.5°
Drops below altitude 10° 04:46:09 10° 169° (S) 2,695 6.3 -13.4°
Sets 04:48:38 0° 171° (S) 3,628 7.0 -12.9°
